Location: Putah Creek Observatory
(38.7021°N, 122.3865°W)
Time: 19:05:18
(UTC-07:00)

Cosmos 1538 Rocket - Pass Details

Date: 27 May 2018
Orbit: 752 x 792 km, 74.0° (Epoch: 18 August)

Event Time Altitude Azimuth Distance (km) Brightness Sun altitude
Exits shadow 23:09:27 52° 95° (E) 945 4.2 -23.8°
Drops below altitude 10° 23:14:19 10° 29° (NNE) 2,309 6.9 -24.3°
Sets 23:16:45 0° 24° (NNE) 3,246 7.8 -24.5°
